[[{"header":{"parameterUnit":"m.s-1","parameterCategory":1,"la1":30.2991,"la2":30.254,"lo1":-89.0895,"lo2":-89.0444,"dy":0.0017,"dx":0.0017,"nx":28,"ny":28,"refTime":"2025-02-02T09:00:00:Z","depth":0,"parameterNumber":2,"parameterNumberName":"U-component_of_WINDS"},"data":[0,0,0,0,0,0,0,0,0,0,0,0,0,0,0,0,0,0,0,0,0,0,0,0,0,0,0,0,0,0,0,0,0,0,0,0,0,0,0,0,0,0,0,0,0,0,0,0,0,0,0,0,0,0,0,0,0,0,-2.2976,-2.2976,0,-2.3007,-2.3008,-2.3008,-2.297,-2.2968,-2.2967,-2.2966,-2.2998,-2.3,-2.3002,0,0,0,0,0,0,0,0,0,0,0,0,0,-2.2883,-2.2885,-2.2976,-2.2976,-2.2976,-2.3007,-2.3008,-2.3008,-2.297,-2.2968,-2.2967,-2.2965,-2.2997,-2.3,-2.3002,0,0,0,0,0,0,0,0,0,0,0,0,0,-2.292,-2.2885,-2.2976,-2.2961,-2.296,-2.3007,-2.3008,-2.3008,-2.297,-2.2968,-2.2966,-2.2964,-2.2996,-2.3,-2.3003,-2.3065,0,0,-2.3013,-2.3014,0,0,0,0,0,0,0,0,-2.2918,-2.2923,-2.2963,-2.2962,-2.2961,-2.2982,-2.2987,-2.3027,-2.2971,-2.2966,-2.2966,-2.2963,-2.2994,-2.2998,-2.3008,-2.3067,-2.3068,-2.3013,-2.3015,-2.3016,-2.3017,0,0,0,0,0,0,0,-2.2915,-2.2921,-2.2988,-2.2963,-2.2962,-2.2953,-2.2956,-2.2994,-2.2992,-2.2967,-2.2964,-2.2968,-2.2994,-2.3005,-2.3009,-2.3069,-2.3013,-2.3016,-2.3018,-2.3019,-2.3181,-2.3183,0,0,0,0,0,0,-2.2914,-2.292,-2.2987,-2.2989,-2.2934,-2.2957,-2.296,-2.2978,-2.2991,-2.2992,-2.297,-2.2966,-2.3001,-2.3005,-2.301,-2.3084,-2.3016,-2.3019,-2.3021,-2.3178,-2.3181,-2.3184,0,0,0,0,0,0,-2.2912,-2.2921,-2.2986,-2.2954,-2.2961,-2.296,-2.2981,-2.2979,-2.2991,-2.2994,-2.2993,-2.2982,-2.2999,-2.3005,-2.3052,-2.3084,-2.3021,-2.3024,-2.3176,-2.3179,-2.3183,-2.3233,0,0,0,0,0,0,-2.291,-2.292,-2.2944,-2.2954,-2.2963,-2.3027,-2.2983,-2.2982,-2.2997,-2.2992,-2.3005,-2.3006,-2.2998,-2.3047,-2.3055,-2.3088,-2.3026,-2.3173,-2.3177,-2.3181,-2.3228,-2.3237,-2.3246,0,0,0,0,0,-2.2907,-2.2956,-2.2945,-2.2953,-2.2993,-2.3029,-2.3034,-2.3025,-2.3,-2.3023,-2.3025,-2.3005,-2.308,-2.3052,-2.3061,-2.3095,-2.3171,-2.3176,-2.3181,-2.3224,-2.3236,-2.3245,0,0,0,0,0,0,-2.2949,-2.2958,-2.2945,-2.3,-2.3014,-2.3023,-2.3052,-2.3037,-2.3059,-2.3054,-2.3041,-2.3044,-2.3094,-2.3099,-2.3068,-2.3157,-2.3121,-2.3128,-2.3151,-2.3162,-2.317,-2.3168,-2.3029,0,0,0,0,0,-2.2965,-2.2994,-2.3,-2.3048,-2.3056,-2.3053,-2.3069,-2.306,-2.3074,-2.308,-2.3086,-2.31,-2.3127,-2.3145,-2.317,-2.3229,-2.3231,-2.3257,-2.3266,-2.3273,-2.3279,-2.3311,-2.3322,-2.3201,-2.3201,-2.3201,0,0,-2.2998,-2.3006,-2.3025,-2.3057,-2.3067,-2.3097,-2.3058,-2.3092,-2.3114,-2.3085,-2.3129,-2.3134,-2.315,-2.3203,-2.3227,-2.3209,-2.3313,-2.328,-2.3285,-2.3287,-2.3317,-2.3329,-2.3339,-2.3205,-2.3204,-2.3203,0,0,-2.3073,-2.3082,-2.3123,-2.3134,-2.315,-2.3148,-2.3158,-2.317,-2.3172,-2.3216,-2.3195,-2.3222,-2.3268,-2.328,-2.3292,-2.3374,-2.3356,-2.3382,-2.3427,-2.3459,-2.3468,-2.3476,-2.3505,-2.3515,-2.3389,-2.3389,-2.3389,0,-2.3112,-2.3156,-2.3146,-2.3182,-2.3196,-2.3172,-2.3213,-2.3224,-2.3248,-2.3258,-2.3238,-2.3297,-2.3305,-2.3361,-2.3381,-2.3392,-2.3403,-2.338,-2.3468,-2.3476,-2.3483,-2.3511,-2.3521,-2.3392,-2.3391,-2.3391,-2.3391,0,-2.3203,-2.3235,-2.3266,-2.3289,-2.3307,-2.3346,-2.3341,-2.3361,-2.3351,-2.3352,-2.3398,-2.3408,-2.3434,-2.3447,-2.3438,-2.3502,-2.349,-2.347,-2.3433,-2.3498,-2.3523,-2.3534,-2.3396,-2.3395,-2.3394,-2.3393,0,0,-2.3305,-2.3322,-2.3334,-2.3344,-2.3361,-2.3385,-2.3423,-2.3449,-2.3466,-2.3483,-2.3514,-2.3555,-2.3536,-2.355,-2.3542,-2.3569,-2.3633,-2.3545,-2.3545,-2.356,-2.3704,-2.3719,-2.3731,-2.3622,-2.3624,-2.3625,-2.3702,0,-2.3379,-2.3444,-2.3436,-2.3498,-2.3527,-2.3505,-2.3538,-2.3552,-2.3553,-2.3578,-2.358,-2.3609,-2.3582,-2.359,-2.3617,-2.3619,-2.3661,-2.3614,-2.365,-2.3651,-2.3646,-2.3744,-2.376,-2.3832,-2.3712,-2.3714,-2.3715,0,-2.3475,-2.3496,-2.3561,-2.3573,-2.3585,-2.3614,-2.3638,-2.3662,-2.3678,-2.3677,-2.3694,-2.3681,-2.3719,-2.3683,-2.3735,-2.3703,-2.3718,-2.3722,-2.3725,-2.3727,-2.3686,-2.3748,-2.3855,-2.3865,-2.373,-2.3729,-2.3728,0,-2.3541,-2.3586,-2.363,-2.364,-2.3656,-2.3677,-2.3685,-2.3698,-2.3715,-2.3736,-2.3746,-2.3771,-2.3785,-2.3805,-2.38,-2.3774,-2.3853,-2.3817,-2.3853,-2.3854,-2.387,-2.3869,-2.398,-2.3881,-2.3881,-2.3881,-2.3881,0,-2.3625,-2.3665,-2.3661,-2.3688,-2.3733,-2.3724,-2.3768,-2.3773,-2.3786,-2.3814,-2.3797,-2.3824,-2.3816,-2.3842,-2.3839,-2.3882,-2.3889,-2.3889,-2.3888,-2.389,-2.389,-2.3899,-2.3893,-2.3884,-2.3883,-2.3882,-2.3882,0,-2.3707,-2.3705,-2.3752,-2.3763,-2.3767,-2.38,-2.3809,-2.3835,-2.3836,-2.3872,-2.388,-2.3881,-2.3912,-2.3909,-2.3943,-2.3941,-2.3995,-2.3988,-2.3989,-2.3987,-2.4024,-2.402,-2.4143,-2.4159,-2.4051,-2.4052,-2.4053,0,-2.3759,-2.379,-2.3805,-2.3822,-2.3831,-2.386,-2.3877,-2.387,-2.3888,-2.3909,-2.3932,-2.3961,-2.3984,-2.4033,-2.4038,-2.4064,-2.4057,-2.4098,-2.406,-2.4062,-2.4056,-2.4054,-2.4057,-2.4105,-2.4106,-2.4107,-2.4108,0,-2.3853,-2.3851,-2.3876,-2.3901,-2.3922,-2.3941,-2.3958,-2.3974,-2.3969,-2.399,-2.4021,-2.4039,-2.4074,-2.4103,-2.4128,-2.4136,-2.4121,-2.412,-2.413,-2.4132,-2.4132,-2.4132,-2.4009,-2.4117,-2.4116,-2.4115,-2.4115,-2.4115,-2.3922,-2.3948,-2.3962,-2.3991,-2.4003,-2.402,-2.4045,-2.405,-2.4075,-2.4103,-2.4098,-2.4133,-2.4148,-2.418,-2.4191,-2.4218,-2.4203,-2.4218,-2.4221,-2.4224,-2.4228,-2.4128,-2.4223,-2.4223,-2.4222,-2.4222,-2.4222,0,-2.4014,-2.4023,-2.4049,-2.4074,-2.4097,-2.4081,-2.41,-2.412,-2.4151,-2.4167,-2.4189,-2.4225,-2.4254,-2.4261,-2.4288,-2.4308,-2.4302,-2.4316,-2.4313,-2.4316,-2.424,-2.4229,-2.432,-2.432,-2.432,-2.432,-2.432,-2.432,-2.4065,-2.4108,-2.4108,-2.4158,-2.4166,-2.42,-2.4212,-2.4228,-2.424,-2.4281,-2.4304,-2.4309,-2.4321,-2.4349,-2.4375,-2.4376,-2.4387,-2.4403,-2.4401,-2.4331,-2.4321,-2.4311,-2.43,-2.4405,-2.4405,-2.4474,-2.4475,-2.4475]},{"header":{"parameterUnit":"m.s-1","parameterCategory":1,"la1":30.2991,"la2":30.254,"lo1":-89.0895,"lo2":-89.0444,"dy":0.0017,"dx":0.0017,"nx":28,"ny":28,"refTime":"2025-02-02T09:00:00:Z","depth":0,"parameterNumber":3,"parameterNumberName":"V-component_of_WINDS"},"data":[0,0,0,0,0,0,0,0,0,0,0,0,0,0,0,0,0,0,0,0,0,0,0,0,0,0,0,0,0,0,0,0,0,0,0,0,0,0,0,0,0,0,0,0,0,0,0,0,0,0,0,0,0,0,0,0,0,0,1.4898,1.4899,0,1.4952,1.4952,1.4953,1.4969,1.4968,1.4968,1.4968,1.5021,1.5023,1.5025,0,0,0,0,0,0,0,0,0,0,0,0,0,1.4811,1.4812,1.4898,1.4899,1.49,1.4951,1.4952,1.4953,1.4969,1.4968,1.4968,1.4968,1.5021,1.5023,1.5025,0,0,0,0,0,0,0,0,0,0,0,0,0,1.4855,1.4813,1.4898,1.4914,1.4916,1.4951,1.4952,1.4953,1.4969,1.4968,1.4968,1.4968,1.502,1.5022,1.5025,1.5049,0,0,1.5033,1.5034,0,0,0,0,0,0,0,0,1.4852,1.4858,1.4911,1.4913,1.4915,1.4953,1.4941,1.4985,1.4969,1.4949,1.4968,1.4967,1.4999,1.5003,1.5014,1.5051,1.5053,1.5033,1.5034,1.5035,1.5036,0,0,0,0,0,0,0,1.4849,1.4856,1.4919,1.4912,1.4914,1.4918,1.4924,1.4949,1.4975,1.495,1.4952,1.4958,1.5,1.5011,1.5015,1.5054,1.5033,1.5035,1.5037,1.5038,1.5116,1.5116,0,0,0,0,0,0,1.4843,1.4853,1.4918,1.4921,1.4882,1.492,1.4927,1.4941,1.4975,1.498,1.4958,1.4958,1.5007,1.5012,1.5017,1.5048,1.5035,1.5038,1.5039,1.5115,1.5116,1.5116,0,0,0,0,0,0,1.4841,1.4849,1.4915,1.4887,1.4896,1.4922,1.4938,1.4942,1.4954,1.4981,1.4986,1.4965,1.5007,1.5014,1.5041,1.505,1.5039,1.5041,1.5114,1.5115,1.5116,1.511,0,0,0,0,0,0,1.4839,1.4848,1.4857,1.4887,1.4898,1.4938,1.4939,1.4944,1.4958,1.4959,1.4989,1.4993,1.5007,1.5037,1.5044,1.5054,1.5043,1.5114,1.5115,1.5116,1.511,1.5111,1.5112,0,0,0,0,0,1.4836,1.4853,1.4858,1.4865,1.4909,1.4939,1.4945,1.4961,1.4959,1.4969,1.4986,1.4992,1.5048,1.504,1.5047,1.5058,1.5113,1.5114,1.5116,1.5109,1.5111,1.5112,0,0,0,0,0,0,1.4822,1.4857,1.4863,1.489,1.4911,1.4941,1.4954,1.4961,1.4984,1.4983,1.5002,1.5009,1.5035,1.505,1.504,1.5084,1.5081,1.5084,1.5074,1.5075,1.5076,1.5072,1.5045,0,0,0,0,0,1.4822,1.4843,1.4873,1.4894,1.4905,1.4927,1.4941,1.4952,1.4975,1.4984,1.5003,1.5025,1.5048,1.5062,1.5084,1.5112,1.5119,1.5123,1.5124,1.5125,1.5127,1.5144,1.5147,1.512,1.512,1.512,0,0,1.4822,1.4844,1.4856,1.4892,1.491,1.4932,1.4935,1.4957,1.4974,1.4987,1.5015,1.503,1.5055,1.5084,1.5097,1.5096,1.5136,1.5126,1.5127,1.5129,1.5146,1.5148,1.5151,1.5121,1.5121,1.5121,0,0,1.4835,1.4853,1.4874,1.4892,1.492,1.4935,1.494,1.497,1.498,1.5009,1.502,1.504,1.5078,1.5096,1.5111,1.5132,1.5139,1.5139,1.5144,1.5161,1.5163,1.5165,1.5174,1.5177,1.5141,1.5141,1.5141,0,1.4832,1.4865,1.4883,1.4906,1.4922,1.4936,1.4957,1.4974,1.5007,1.5018,1.5017,1.5067,1.5085,1.5118,1.5124,1.5135,1.5142,1.5136,1.5161,1.5164,1.5166,1.5174,1.5177,1.5141,1.5141,1.5141,1.5141,0,1.4861,1.4884,1.4897,1.493,1.4947,1.4969,1.4991,1.5007,1.5017,1.5032,1.5062,1.5084,1.5112,1.5121,1.513,1.5157,1.5156,1.5158,1.5155,1.5168,1.5176,1.518,1.5141,1.5141,1.5141,1.5141,0,0,1.4864,1.4909,1.4913,1.4929,1.4962,1.498,1.5003,1.5031,1.5045,1.5068,1.5088,1.5121,1.5124,1.5141,1.5152,1.5167,1.5185,1.5168,1.5169,1.5171,1.5216,1.5215,1.5219,1.5189,1.519,1.5191,1.5215,0,1.4881,1.4923,1.4941,1.4975,1.4998,1.5012,1.5033,1.5055,1.5071,1.5092,1.511,1.5134,1.5135,1.5145,1.516,1.5179,1.5194,1.5178,1.5209,1.521,1.5203,1.5223,1.5221,1.5242,1.5218,1.5219,1.5219,0,1.4906,1.4931,1.4967,1.4999,1.5009,1.5027,1.5055,1.5075,1.5102,1.5112,1.5132,1.5143,1.5169,1.5165,1.5201,1.519,1.5204,1.5215,1.5217,1.522,1.5215,1.5228,1.525,1.5253,1.5224,1.5224,1.5223,0,1.4906,1.4948,1.4976,1.4989,1.5027,1.5039,1.5055,1.5081,1.5098,1.5123,1.5134,1.5161,1.5176,1.5197,1.5216,1.5211,1.5251,1.5248,1.5261,1.5261,1.5269,1.5268,1.5294,1.5277,1.5277,1.5277,1.5277,0,1.4924,1.4946,1.4977,1.4994,1.502,1.5041,1.5066,1.5083,1.5106,1.5127,1.5141,1.5161,1.5185,1.5208,1.5223,1.5251,1.5257,1.5267,1.5271,1.5266,1.5265,1.5276,1.5275,1.5278,1.5277,1.5277,1.5277,0,1.4928,1.495,1.4981,1.5015,1.5024,1.5042,1.507,1.5088,1.5105,1.5132,1.5139,1.5166,1.5194,1.5216,1.5251,1.5262,1.5292,1.5296,1.5284,1.5286,1.5298,1.5297,1.5332,1.5338,1.5316,1.5316,1.5316,0,1.4938,1.4955,1.4991,1.5007,1.5023,1.5048,1.5065,1.5087,1.5105,1.5137,1.5151,1.518,1.5205,1.5249,1.5272,1.53,1.5305,1.5315,1.5309,1.5304,1.5306,1.5305,1.5307,1.5316,1.5316,1.5316,1.5316,0,1.4953,1.4963,1.4988,1.5017,1.5038,1.5062,1.5086,1.5098,1.5124,1.5143,1.5173,1.5192,1.523,1.5259,1.5289,1.5306,1.5316,1.5318,1.5323,1.5318,1.5311,1.5316,1.5287,1.5317,1.5317,1.5317,1.5317,1.5317,1.4961,1.4978,1.5007,1.5034,1.5055,1.5078,1.5097,1.5117,1.5142,1.5175,1.5186,1.5217,1.5244,1.5287,1.5304,1.5329,1.5329,1.5335,1.5337,1.5339,1.5339,1.5307,1.5334,1.5334,1.5334,1.5334,1.5334,0,1.4978,1.4997,1.5023,1.5057,1.5079,1.5087,1.5115,1.5133,1.516,1.5185,1.5209,1.5244,1.5273,1.5299,1.5329,1.5344,1.5349,1.5351,1.5351,1.5355,1.5336,1.533,1.5347,1.5347,1.5347,1.5347,1.5347,1.5347,1.4989,1.5019,1.5033,1.5074,1.5094,1.5124,1.514,1.5161,1.5182,1.522,1.5244,1.5261,1.5288,1.532,1.5348,1.5355,1.5365,1.5367,1.5375,1.5357,1.5356,1.5354,1.5348,1.5369,1.5369,1.5391,1.5391,1.5391]}]]